STARLINK-4018, 52697

Orbit data source: Space-Track

STARLINK-4018, 52697 is a payload satellite owned by SpaceX/Seattle (US) in LEO that was launched on Wed, 18 May 2022 UTC via an FALCON 9 launch vehicle from the Air Force Eastern Test Range (AFETR). Payload-class satellites include a variety of spacecraft equipped with specific instruments for various scientific and technological missions. These include communications satellites like Starlink; space stations such as the ISS; scientific satellites like the Hubble; Earth observation satellites from companies like Planet Labs, Umbra, and HawkEye 360; GPS; miniature CubeSats for education and research; and military/defense satellites.

Loading next visibility...
Identifier
52697, 2022-053AT
Orbit
LEO
Country
Flag of USUS
Related business
Manufacturer
SpaceX/Seattle
Mission
Operational Commercial Communications
Bus & Motor
STARLINK, Unknown motor
Mass
297 kg wet, ~275 kg dry
Launch date (UTC)
2022-05-18 (4 years ago)
Launch vehicle
FALCON 9
Launch site
Air Force Eastern Test Range (AFETR)
Object type
Payload
Rocket body
Debris
Shape & HBR
Box + 1 Pan, 10.1 m
Radar Cross Section
13.562 m², Large (>1 m²)

Expand to show TLE details & history
Last TLE update: 2 days ago

TLE from 2 days ago
0 STARLINK-4018
1 52697U 22053AT  26171.38863850  .00001244  00000-0  96172-4 0  9999
2 52697  53.1612  47.9700 0001474 121.3209 238.7926 15.08871329226595
Epoch: 2026-06-20T09:19Z
TLE epoch observation values (Epoch: 2026-06-20T09:19:38.366Z)
Latitude
-0.00009°
Longitude
-0.5439°
Altitude
541.068 km
Speed
7.593 km/s
True Right ascension
03h 11m 52s
True Declination
0° 00' 00"
Sunlit
Object was in daylight at epoch
Visualization orbit readout
Latitude
Unknown
Longitude
Unknown
Altitude
Unknown
Speed
Unknown
Apparent Right ascension
Unknown
Apparent Declination
Unknown
Sunlit
N/A
Visualization observer readout
Local Sidereal Time
23:07:24
Azimuth
Unknown
Elevation
Unknown
Doppler factor
Unknown
Orbital elements
Apogee altitude
540.921 km
Perigee altitude
538.882 km
Semi-major axis
6,918.039 km
Eccentricity
0.00015
Inclination
53.1612°
RAAN
47.97°
Arg. of periapsis
121.3209°
True anomaly
238.77815°
Mean anomaly
238.7926°
Eccentric anomaly
238.78538°
Mean motion
3.77197 °/min
Orbital period
95.44 mins
BSTAR
0.000096172
Loading maneuver chart data...
Computing Atmospheric mass density...

Documentation

Showing up to 5 results
|